Regional Weather Roundup
Issued by NWS

Home | Current Version | Previous Version | Text Only | Print | Product List | Glossary On
Versions: 1 2 3 4 5 6 7 8 9 10 11 12 13 14 15 16 17 18 19 20 21 22 23 24 25 26 27 28 29 30 31 32 33 34 35 36 37 38 39 40 41 42 43 44 45 46 47 48 49 50
693
ASUS44 KLIX 191801
RWRLA
LOUISIANA WEATHER ROUNDUP
NATIONAL WEATHER SERVICE NEW ORLEANS LA
100 PM CDT TUE AUG 19 2014

NOTE: "FAIR" INDICATES FEW OR NO CLOUDS BELOW 12,000 FEET WITH NO
      SIGNIFICANT WEATHER AND/OR OBSTRUCTIONS TO VISIBILITY.
      SKY/WX - SKY CONDITION AND SIGNIFICANT WEATHER.
      TMP - AIR TEMPERATURE.    DP   - DEWPOINT TEMPERATURE.
      RH  - RELATIVE HUMIDITY.  PRES - PRESSURE.
      HX  - HEAT INDEX.         WCI  - WIND CHILL INDEX.

*  THESE STATIONS ARE NOT NWS OR FAA STATIONS AND ARE NOT UNDER
   NWS QUALITY CONTROL.

LAZ040-048-061>063-065-066-069-191900-
SOUTHEAST LOUISIANA

CITY           SKY/WX    TMP DP  RH WIND       PRES   REMARKS
N.O. AUDUBON   NOT AVBL
N.O. INTL ARPT MOSUNNY   91  71  51 VRB5      29.99F HX  97
6HR MIN TEMP:  78; 6HR MAX TEMP:  92;

N.O. LAKEFRONT SUNNY     90  75  61 NE6       30.00F HX 100
6HR MIN TEMP:  82; 6HR MAX TEMP:  90;

N.O. DOWNTOWN* MOCLDY    93  72  49 CALM      30.00F HX 100
6HR MIN TEMP:  81; 6HR MAX TEMP:  95;

SLIDELL        SUNNY     91  69  48 SW6       29.99F HX  96
6HR MIN TEMP:  76; 6HR MAX TEMP:  91;

BATON ROUGE    PTSUNNY   92  71  50 W6        29.99F HX  98
6HR MIN TEMP:  78; 6HR MAX TEMP:  92;

BOOTHVILLE     SUNNY     89  74  60 SW9       30.03S HX  98
6HR MIN TEMP:  84; 6HR MAX TEMP:  89;

BELLE CHASSE   MOSUNNY   93  67  42 W7        30.00F HX  96
6HR MIN TEMP:  76; 6HR MAX TEMP:  93;

BOGALUSA*      FAIR      91  73  54 SW6       30.00F HX  99
6HR MIN TEMP:  75; 6HR MAX TEMP:  92;

GALLIANO*      NOT AVBL
NEW ROADS*     FAIR      90  73  57 MISG      29.99F HX  98
6HR MIN TEMP:  75; 6HR MAX TEMP:  90;

GONZALES*      FAIR      91  75  59 SW3       29.98F HX 102
6HR MIN TEMP:  75; 6HR MAX TEMP:  91;

HAMMOND*       NOT AVBL
HOUMA*         MOSUNNY   93  70  46 S7        30.00F HX  99
PORT FOURCHON* PTCLDY    90  73  58 SW7       30.04S HX  98

$$

LAZ041-044-053-054-191900-
SOUTHWEST LOUISIANA

CITY           SKY/WX    TMP DP  RH WIND       PRES   REMARKS
LAKE CHARLES   PTSUNNY   88  77  69 S8        29.97F HX 100
6HR MIN TEMP:  79; 6HR MAX TEMP:  91; 6HR PCP:  0.60;

LAFAYETTE      PTSUNNY   92  74  55 CALM      29.98F HX 101
6HR MIN TEMP:  78; 6HR MAX TEMP:  93;

PATTERSON      PTSUNNY  N/A N/A N/A MISG        N/A
SALT POINT       N/A     93  77  59 VRB5      30.00F HX 107
6HR MIN TEMP:  87; 6HR MAX TEMP:  93; 6HR PCP:  0.07;

NEW IBERIA     MOSUNNY   92  73  53 VRB5      29.99F HX 100
6HR MIN TEMP:  76; 6HR MAX TEMP:  93;

CHENAULT AIRPK PTSUNNY   88  73  62 SW3       30.00S THUNDER HX  96

$$

LAZ027-028-191900-
CENTRAL LOUISIANA

CITY           SKY/WX    TMP DP  RH WIND       PRES   REMARKS
FORT POLK      MOSUNNY   90  72  55 W8        29.98F HX  97
6HR MIN TEMP:  75; 6HR MAX TEMP:  91;

ALEXANDRIA INT MOSUNNY   92  73  53 W7        29.96F HX 100
6HR MIN TEMP:  75; 6HR MAX TEMP:  93;

ALEXANDRIA     MOSUNNY   93  75  55 W10       29.98F HX 104
6HR MIN TEMP:  75; 6HR MAX TEMP:  93;


$$

LAZ001-002-191900-
NORTHWEST LOUISIANA

CITY           SKY/WX    TMP DP  RH WIND       PRES   REMARKS
SHREVEPORT     SUNNY     91  72  53 W8        29.95F HX  98
6HR MIN TEMP:  75; 6HR MAX TEMP:  92;

BARKSDALE AFB  SUNNY     93  69  45 SW8       29.95F HX  98
6HR MIN TEMP:  76; 6HR MAX TEMP:  93;

DTN SHREVEPORT SUNNY     92  69  47 SW10      29.95F HX  97
6HR MIN TEMP:  77; 6HR MAX TEMP:  92;


$$

LAZ014-016-191900-
NORTHEAST LOUISIANA

CITY           SKY/WX    TMP DP  RH WIND       PRES   REMARKS
MONROE         SUNNY     91  72  53 W7        29.97S HX  98
6HR MIN TEMP:  75; 6HR MAX TEMP:  92;

TALLULAH       MOSUNNY   90  74  59 VRB3      29.97F HX  99
6HR MIN TEMP:  75; 6HR MAX TEMP:  90;


$$




USA.gov is the U.S. government's official web portal to all federal, state and local government web resources and services.